owner,sensor,date,latitude,longitude,vertical_datum,direction_of_sea_water_velocity,sea_water_speed,upward_sea_water_velocity,qcFlag 
TABS,ioos:station:wmo:42046:1,2013-12-01T00:00:00Z,27.8903,-94.0367,2.0,150.718431,3.680230971,-99999.0,'11133222,11111222,99999999' 
TABS,ioos:station:wmo:42046:1,2013-12-01T00:30:00Z,27.8903,-94.0367,2.0,200.9925938,1.842281195,-99999.0,'11133222,11111222,99999999' 
TABS,ioos:station:wmo:42046:1,2013-12-01T01:00:00Z,27.8903,-94.0367,2.0,38.45382975,1.736663468,-99999.0,'11133222,11111222,99999999' 
TABS,ioos:station:wmo:42046:1,2013-12-01T01:30:00Z,27.8903,-94.0367,2.0,127.9619705,3.462629059,-99999.0,'11133222,11111222,99999999' 
TABS,ioos:station:wmo:42046:1,2013-12-01T02:00:00Z,27.8903,-94.0367,2.0,225.3533566,2.291069619,-99999.0,'11133222,11111222,99999999' 
TABS,ioos:station:wmo:42046:1,2013-12-01T02:30:00Z,27.8903,-94.0367,2.0,352.0813265,2.6856098,-99999.0,'11133222,11111222,99999999' 
TABS,ioos:station:wmo:42046:1,2013-12-01T03:00:00Z,27.8903,-94.0367,2.0,327.8595716,3.590222834,-99999.0,'11133222,11111222,99999999' 
TABS,ioos:station:wmo:42046:1,2013-12-01T03:30:00Z,27.8903,-94.0367,2.0,99.50217178,2.36241402,-99999.0,'11133222,11111222,99999999' 
TABS,ioos:station:wmo:42046:1,2013-12-01T04:00:00Z,27.8903,-94.0367,2.0,359.336584,2.590173739,-99999.0,'11133222,11144222,99999999' 
TABS,ioos:station:wmo:42046:1,2013-12-01T04:30:00Z,27.8903,-94.0367,2.0,294.9867957,1.136353818,-99999.0,'11133222,11111222,99999999' 
TABS,ioos:station:wmo:42046:1,2013-12-01T05:00:00Z,27.8903,-94.0367,2.0,58.73634141,3.930801445,-99999.0,'11133222,11111222,99999999' 
TABS,ioos:station:wmo:42046:1,2013-12-01T05:30:00Z,27.8903,-94.0367,2.0,104.0362106,0.247386338,-99999.0,'11133222,11111222,99999999' 
TABS,ioos:station:wmo:42046:1,2013-12-01T06:00:00Z,27.8903,-94.0367,2.0,54.34475528,1.698381583,-99999.0,'11133222,11111222,99999999' 
TABS,ioos:station:wmo:42046:1,2013-12-01T06:30:00Z,27.8903,-94.0367,2.0,38.09198849,3.938895784,-99999.0,'11133222,11111222,99999999' 
TABS,ioos:station:wmo:42046:1,2013-12-01T07:00:00Z,27.8903,-94.0367,2.0,145.2708745,2.141494805,-99999.0,'11133222,11111222,99999999' 
TABS,ioos:station:wmo:42046:1,2013-12-01T07:30:00Z,27.8903,-94.0367,2.0,107.0102643,5.46926869,-99999.0,'11133222,11111222,99999999' 
TABS,ioos:station:wmo:42046:1,2013-12-01T08:00:00Z,27.8903,-94.0367,2.0,134.0694209,6.096064304,-99999.0,'11133222,11111222,99999999' 
TABS,ioos:station:wmo:42046:1,2013-12-01T08:30:00Z,27.8903,-94.0367,2.0,54.56676885,0.638200595,-99999.0,'11133222,11111222,99999999' 
TABS,ioos:station:wmo:42046:1,2013-12-01T09:00:00Z,27.8903,-94.0367,2.0,169.6827297,4.187708204,-99999.0,'11133222,11111222,99999999' 
TABS,ioos:station:wmo:42046:1,2013-12-01T09:30:00Z,27.8903,-94.0367,2.0,168.5701686,4.693069358,-99999.0,'11133222,11111222,99999999' 
TABS,ioos:station:wmo:42046:1,2013-12-01T10:00:00Z,27.8903,-94.0367,2.0,190.3154082,4.746725187,-99999.0,'11133222,11111222,99999999' 
TABS,ioos:station:wmo:42046:1,2013-12-01T10:30:00Z,27.8903,-94.0367,2.0,195.7509264,4.862591901,-99999.0,'11133222,11111222,99999999' 
TABS,ioos:station:wmo:42046:1,2013-12-01T11:00:00Z,27.8903,-94.0367,2.0,181.8629668,8.304390405,-99999.0,'11133222,11111222,99999999' 
TABS,ioos:station:wmo:42046:1,2013-12-01T11:30:00Z,27.8903,-94.0367,2.0,214.1464289,5.219894635,-99999.0,'11133222,11111222,99999999' 
TABS,ioos:station:wmo:42046:1,2013-12-01T12:00:00Z,27.8903,-94.0367,2.0,221.4592868,4.923789191,-99999.0,'11133222,11111222,99999999' 
TABS,ioos:station:wmo:42046:1,2013-12-01T12:30:00Z,27.8903,-94.0367,2.0,225.4621503,7.884497448,-99999.0,'11133222,11111222,99999999' 
TABS,ioos:station:wmo:42046:1,2013-12-01T13:00:00Z,27.8903,-94.0367,2.0,225.3490437,6.958060074,-99999.0,'11133222,11111222,99999999' 
TABS,ioos:station:wmo:42046:1,2013-12-01T13:30:00Z,27.8903,-94.0367,2.0,192.7155507,6.314879255,-99999.0,'11133222,11111222,99999999' 
TABS,ioos:station:wmo:42046:1,2013-12-01T14:00:00Z,27.8903,-94.0367,2.0,191.0407039,0.835463943,-99999.0,'11133222,11111222,99999999' 
TABS,ioos:station:wmo:42046:1,2013-12-01T14:30:00Z,27.8903,-94.0367,2.0,341.7873798,1.631747529,-99999.0,'11133222,11111222,99999999' 
TABS,ioos:station:wmo:42046:1,2013-12-01T15:00:00Z,27.8903,-94.0367,2.0,239.670564,3.406170871,-99999.0,'11133222,11111222,99999999' 
TABS,ioos:station:wmo:42046:1,2013-12-01T15:30:00Z,27.8903,-94.0367,2.0,251.6450319,2.254706189,-99999.0,'11133222,11111222,99999999' 
TABS,ioos:station:wmo:42046:1,2013-12-01T16:00:00Z,27.8903,-94.0367,2.0,274.7991734,4.064246548,-99999.0,'11133222,11111222,99999999' 
TABS,ioos:station:wmo:42046:1,2013-12-01T16:30:00Z,27.8903,-94.0367,2.0,214.8141035,6.077910825,-99999.0,'11133222,11111222,99999999' 
TABS,ioos:station:wmo:42046:1,2013-12-01T17:00:00Z,27.8903,-94.0367,2.0,276.7539792,3.061241578,-99999.0,'11133222,11111222,99999999' 
TABS,ioos:station:wmo:42046:1,2013-12-01T17:30:00Z,27.8903,-94.0367,2.0,28.71522084,2.622517874,-99999.0,'11133222,11111222,99999999' 
TABS,ioos:station:wmo:42046:1,2013-12-01T18:00:00Z,27.8903,-94.0367,2.0,47.28369097,4.614000433,-99999.0,'11133222,11111222,99999999' 
TABS,ioos:station:wmo:42046:1,2013-12-01T18:30:00Z,27.8903,-94.0367,2.0,27.84926866,6.186517599,-99999.0,'11133222,11111222,99999999' 
TABS,ioos:station:wmo:42046:1,2013-12-01T19:00:00Z,27.8903,-94.0367,2.0,65.36559387,7.964923101,-99999.0,'11133222,11111222,99999999' 
TABS,ioos:station:wmo:42046:1,2013-12-01T19:30:00Z,27.8903,-94.0367,2.0,62.14465148,8.539473052,-99999.0,'11133222,11111222,99999999' 
TABS,ioos:station:wmo:42046:1,2013-12-01T20:00:00Z,27.8903,-94.0367,2.0,58.15378266,8.016794871,-99999.0,'11133222,11111222,99999999' 
TABS,ioos:station:wmo:42046:1,2013-12-01T20:30:00Z,27.8903,-94.0367,2.0,69.35305746,5.89888125,-99999.0,'11133222,11111222,99999999' 
TABS,ioos:station:wmo:42046:1,2013-12-01T21:00:00Z,27.8903,-94.0367,2.0,71.49103705,7.33965258,-99999.0,'11133222,11111222,99999999' 
TABS,ioos:station:wmo:42046:1,2013-12-01T21:30:00Z,27.8903,-94.0367,2.0,79.84477427,8.564169545,-99999.0,'11133222,11111222,99999999' 
TABS,ioos:station:wmo:42046:1,2013-12-01T22:00:00Z,27.8903,-94.0367,2.0,77.28085154,10.44634386,-99999.0,'11111222,11111222,99999999' 
TABS,ioos:station:wmo:42046:1,2013-12-01T22:30:00Z,27.8903,-94.0367,2.0,87.73205077,8.086334151,-99999.0,'11133222,11111222,99999999' 
TABS,ioos:station:wmo:42046:1,2013-12-01T23:00:00Z,27.8903,-94.0367,2.0,104.185453,10.24231419,-99999.0,'11111222,11111222,99999999' 
TABS,ioos:station:wmo:42046:1,2013-12-01T23:30:00Z,27.8903,-94.0367,2.0,131.1333795,5.138219536,-99999.0,'11133222,11111222,99999999' 
TABS,ioos:station:wmo:42046:1,2013-12-02T00:00:00Z,27.8903,-94.0367,2.0,154.3896395,2.683654225,-99999.0,'11133222,11111222,99999999' 
TABS,ioos:station:wmo:42046:1,2013-12-02T00:30:00Z,27.8903,-94.0367,2.0,190.101106,6.043682652,-99999.0,'11133222,11111222,99999999' 
TABS,ioos:station:wmo:42046:1,2013-12-02T01:00:00Z,27.8903,-94.0367,2.0,221.7523491,3.994496214,-99999.0,'11133222,11111222,99999999' 
TABS,ioos:station:wmo:42046:1,2013-12-02T01:30:00Z,27.8903,-94.0367,2.0,243.9377222,4.074272941,-99999.0,'11133222,11111222,99999999' 
TABS,ioos:station:wmo:42046:1,2013-12-02T02:00:00Z,27.8903,-94.0367,2.0,249.18324,3.348581789,-99999.0,'11133222,11111222,99999999' 
TABS,ioos:station:wmo:42046:1,2013-12-02T02:30:00Z,27.8903,-94.0367,2.0,230.1577613,6.056145639,-99999.0,'11133222,11111222,99999999' 
TABS,ioos:station:wmo:42046:1,2013-12-02T03:00:00Z,27.8903,-94.0367,2.0,172.2243736,5.026211297,-99999.0,'11133222,11111222,99999999' 
TABS,ioos:station:wmo:42046:1,2013-12-02T03:30:00Z,27.8903,-94.0367,2.0,194.6565064,4.031178488,-99999.0,'11133222,11111222,99999999' 
TABS,ioos:station:wmo:42046:1,2013-12-02T04:00:00Z,27.8903,-94.0367,2.0,203.3397425,6.915930885,-99999.0,'11133222,11111222,99999999' 
TABS,ioos:station:wmo:42046:1,2013-12-02T04:30:00Z,27.8903,-94.0367,2.0,202.2820515,7.964753606,-99999.0,'11133222,11111222,99999999' 
TABS,ioos:station:wmo:42046:1,2013-12-02T05:00:00Z,27.8903,-94.0367,2.0,198.4000336,5.227245929,-99999.0,'11133222,11111222,99999999' 
TABS,ioos:station:wmo:42046:1,2013-12-02T05:30:00Z,27.8903,-94.0367,2.0,160.8449521,7.801954883,-99999.0,'11133222,11111222,99999999' 
TABS,ioos:station:wmo:42046:1,2013-12-02T06:00:00Z,27.8903,-94.0367,2.0,208.7723612,7.894707088,-99999.0,'11133222,11111222,99999999' 
TABS,ioos:station:wmo:42046:1,2013-12-02T06:30:00Z,27.8903,-94.0367,2.0,214.3691963,11.46091183,-99999.0,'11111222,11111222,99999999' 
TABS,ioos:station:wmo:42046:1,2013-12-02T07:00:00Z,27.8903,-94.0367,2.0,192.8308822,9.456130287,-99999.0,'11133222,11111222,99999999' 
TABS,ioos:station:wmo:42046:1,2013-12-02T07:30:00Z,27.8903,-94.0367,2.0,206.2786094,12.53555344,-99999.0,'11111222,11111222,99999999' 
TABS,ioos:station:wmo:42046:1,2013-12-02T08:00:00Z,27.8903,-94.0367,2.0,219.9407981,12.99065818,-99999.0,'11111222,11111222,99999999' 
TABS,ioos:station:wmo:42046:1,2013-12-02T08:30:00Z,27.8903,-94.0367,2.0,213.3093189,13.3657959,-99999.0,'11111222,11111222,99999999' 
TABS,ioos:station:wmo:42046:1,2013-12-02T09:00:00Z,27.8903,-94.0367,2.0,189.3736997,14.91922585,-99999.0,'11111222,11111222,99999999' 
TABS,ioos:station:wmo:42046:1,2013-12-02T09:30:00Z,27.8903,-94.0367,2.0,200.7920186,14.76135495,-99999.0,'11111222,11111222,99999999' 
TABS,ioos:station:wmo:42046:1,2013-12-02T10:00:00Z,27.8903,-94.0367,2.0,188.5290962,19.68774492,-99999.0,'11111222,11111222,99999999' 
TABS,ioos:station:wmo:42046:1,2013-12-02T10:30:00Z,27.8903,-94.0367,2.0,199.5050824,15.57377282,-99999.0,'11111222,11111222,99999999' 
TABS,ioos:station:wmo:42046:1,2013-12-02T11:00:00Z,27.8903,-94.0367,2.0,193.5588218,16.89076671,-99999.0,'11111222,11111222,99999999' 
TABS,ioos:station:wmo:42046:1,2013-12-02T11:30:00Z,27.8903,-94.0367,2.0,182.2390554,15.61192173,-99999.0,'11111222,11111222,99999999' 
TABS,ioos:station:wmo:42046:1,2013-12-02T12:00:00Z,27.8903,-94.0367,2.0,189.8012956,9.163760145,-99999.0,'11133222,11111222,99999999' 
TABS,ioos:station:wmo:42046:1,2013-12-02T12:30:00Z,27.8903,-94.0367,2.0,176.4962661,2.94550505,-99999.0,'11133222,11111222,99999999' 
TABS,ioos:station:wmo:42046:1,2013-12-02T13:00:00Z,27.8903,-94.0367,2.0,185.8868027,11.30964633,-99999.0,'11111222,11111222,99999999' 
TABS,ioos:station:wmo:42046:1,2013-12-02T13:30:00Z,27.8903,-94.0367,2.0,176.7342093,10.00624805,-99999.0,'11111222,11111222,99999999' 
TABS,ioos:station:wmo:42046:1,2013-12-02T14:00:00Z,27.8903,-94.0367,2.0,161.0887537,12.55783819,-99999.0,'11111222,11111222,99999999' 
TABS,ioos:station:wmo:42046:1,2013-12-02T14:30:00Z,27.8903,-94.0367,2.0,171.1974283,10.84776475,-99999.0,'11111222,11111222,99999999' 
TABS,ioos:station:wmo:42046:1,2013-12-02T15:00:00Z,27.8903,-94.0367,2.0,179.7323048,10.71011671,-99999.0,'11111222,11111222,99999999' 
TABS,ioos:station:wmo:42046:1,2013-12-02T15:30:00Z,27.8903,-94.0367,2.0,165.0848802,13.44290519,-99999.0,'11111222,11111222,99999999' 
TABS,ioos:station:wmo:42046:1,2013-12-02T16:00:00Z,27.8903,-94.0367,2.0,160.2597285,10.27374323,-99999.0,'11111222,11111222,99999999' 
TABS,ioos:station:wmo:42046:1,2013-12-02T16:30:00Z,27.8903,-94.0367,2.0,155.5272154,9.921340635,-99999.0,'11133222,11111222,99999999' 
TABS,ioos:station:wmo:42046:1,2013-12-02T17:00:00Z,27.8903,-94.0367,2.0,146.0562819,11.28271244,-99999.0,'11111222,11111222,99999999' 
TABS,ioos:station:wmo:42046:1,2013-12-02T17:30:00Z,27.8903,-94.0367,2.0,141.8991278,14.24528694,-99999.0,'11111222,11111222,99999999' 
TABS,ioos:station:wmo:42046:1,2013-12-02T18:00:00Z,27.8903,-94.0367,2.0,137.021255,9.021224972,-99999.0,'11133222,11111222,99999999' 
TABS,ioos:station:wmo:42046:1,2013-12-02T18:30:00Z,27.8903,-94.0367,2.0,127.9114357,11.00181803,-99999.0,'11111222,11111222,99999999' 
TABS,ioos:station:wmo:42046:1,2013-12-02T19:00:00Z,27.8903,-94.0367,2.0,123.8539243,9.693425607,-99999.0,'11133222,11111222,99999999' 
TABS,ioos:station:wmo:42046:1,2013-12-02T19:30:00Z,27.8903,-94.0367,2.0,141.5405388,9.373606563,-99999.0,'11133222,11111222,99999999' 
TABS,ioos:station:wmo:42046:1,2013-12-02T20:00:00Z,27.8903,-94.0367,2.0,119.0372211,12.85594026,-99999.0,'11111222,11111222,99999999' 
TABS,ioos:station:wmo:42046:1,2013-12-02T20:30:00Z,27.8903,-94.0367,2.0,141.8897161,17.0940048,-99999.0,'11111222,11111222,99999999' 
TABS,ioos:station:wmo:42046:1,2013-12-02T21:00:00Z,27.8903,-94.0367,2.0,135.5980573,15.57841134,-99999.0,'11111222,11111222,99999999' 
TABS,ioos:station:wmo:42046:1,2013-12-02T21:30:00Z,27.8903,-94.0367,2.0,123.5693453,15.80621713,-99999.0,'11111222,11111222,99999999' 
TABS,ioos:station:wmo:42046:1,2013-12-02T22:00:00Z,27.8903,-94.0367,2.0,129.2213035,14.81847833,-99999.0,'11111222,11111222,99999999' 
TABS,ioos:station:wmo:42046:1,2013-12-02T22:30:00Z,27.8903,-94.0367,2.0,129.8318555,19.46800966,-99999.0,'11111222,11111222,99999999' 
TABS,ioos:station:wmo:42046:1,2013-12-02T23:00:00Z,27.8903,-94.0367,2.0,130.5021976,16.32078736,-99999.0,'11111222,11111222,99999999' 
TABS,ioos:station:wmo:42046:1,2013-12-02T23:30:00Z,27.8903,-94.0367,2.0,145.8278501,16.48627308,-99999.0,'11111222,11111222,99999999' 
TABS,ioos:station:wmo:42046:1,2013-12-03T00:00:00Z,27.8903,-94.0367,2.0,142.8654759,11.26412003,-99999.0,'11111222,11111222,99999999' 
TABS,ioos:station:wmo:42046:1,2013-12-03T00:30:00Z,27.8903,-94.0367,2.0,137.0308043,18.95529741,-99999.0,'11111222,11111222,99999999' 
TABS,ioos:station:wmo:42046:1,2013-12-03T01:00:00Z,27.8903,-94.0367,2.0,145.5272478,17.26110657,-99999.0,'11111222,11111222,99999999' 
TABS,ioos:station:wmo:42046:1,2013-12-03T01:30:00Z,27.8903,-94.0367,2.0,149.2419161,17.18769909,-99999.0,'11111222,11111222,99999999' 
TABS,ioos:station:wmo:42046:1,2013-12-03T02:00:00Z,27.8903,-94.0367,2.0,149.5343159,13.60892722,-99999.0,'11111222,11111222,99999999' 
TABS,ioos:station:wmo:42046:1,2013-12-03T02:30:00Z,27.8903,-94.0367,2.0,130.5063293,20.30688799,-99999.0,'11111222,11111222,99999999' 
TABS,ioos:station:wmo:42046:1,2013-12-03T03:00:00Z,27.8903,-94.0367,2.0,138.042733,15.5853938,-99999.0,'11111222,11111222,99999999' 
TABS,ioos:station:wmo:42046:1,2013-12-03T03:30:00Z,27.8903,-94.0367,2.0,144.6034473,15.08898936,-99999.0,'11111222,11111222,99999999' 
TABS,ioos:station:wmo:42046:1,2013-12-03T04:00:00Z,27.8903,-94.0367,2.0,135.3258621,16.15765144,-99999.0,'11111222,11111222,99999999' 
TABS,ioos:station:wmo:42046:1,2013-12-03T04:30:00Z,27.8903,-94.0367,2.0,134.0208309,13.65622569,-99999.0,'11111222,11111222,99999999' 
TABS,ioos:station:wmo:42046:1,2013-12-03T05:00:00Z,27.8903,-94.0367,2.0,126.0654417,13.24930564,-99999.0,'11111222,11111222,99999999' 
TABS,ioos:station:wmo:42046:1,2013-12-03T05:30:00Z,27.8903,-94.0367,2.0,134.2050929,12.23412441,-99999.0,'11111222,11111222,99999999' 
TABS,ioos:station:wmo:42046:1,2013-12-03T06:00:00Z,27.8903,-94.0367,2.0,127.3945159,12.448522,-99999.0,'11111222,11111222,99999999' 
TABS,ioos:station:wmo:42046:1,2013-12-03T06:30:00Z,27.8903,-94.0367,2.0,129.3056323,14.82339367,-99999.0,'11111222,11111222,99999999' 
TABS,ioos:station:wmo:42046:1,2013-12-03T07:00:00Z,27.8903,-94.0367,2.0,113.5316467,13.09935113,-99999.0,'11111222,11111222,99999999' 
TABS,ioos:station:wmo:42046:1,2013-12-03T07:30:00Z,27.8903,-94.0367,2.0,109.8836161,15.25970511,-99999.0,'11111222,11111222,99999999' 
TABS,ioos:station:wmo:42046:1,2013-12-03T08:00:00Z,27.8903,-94.0367,2.0,119.4758201,17.17279826,-99999.0,'11111222,11111222,99999999' 
TABS,ioos:station:wmo:42046:1,2013-12-03T08:30:00Z,27.8903,-94.0367,2.0,126.5838879,17.63421957,-99999.0,'11111222,11111222,99999999' 
TABS,ioos:station:wmo:42046:1,2013-12-03T09:00:00Z,27.8903,-94.0367,2.0,133.0094795,12.62240072,-99999.0,'11111222,11111222,99999999' 
TABS,ioos:station:wmo:42046:1,2013-12-03T09:30:00Z,27.8903,-94.0367,2.0,137.0165139,12.05656668,-99999.0,'11111222,11111222,99999999' 
TABS,ioos:station:wmo:42046:1,2013-12-03T10:00:00Z,27.8903,-94.0367,2.0,100.8491336,14.87588989,-99999.0,'11111222,11111222,99999999' 
TABS,ioos:station:wmo:42046:1,2013-12-03T10:30:00Z,27.8903,-94.0367,2.0,109.9476433,17.96799933,-99999.0,'11111222,11111222,99999999' 
TABS,ioos:station:wmo:42046:1,2013-12-03T11:00:00Z,27.8903,-94.0367,2.0,116.0934306,16.30148766,-99999.0,'11111222,11111222,99999999' 
TABS,ioos:station:wmo:42046:1,2013-12-03T11:30:00Z,27.8903,-94.0367,2.0,109.6094535,9.56473732,-99999.0,'11133222,11111222,99999999' 
TABS,ioos:station:wmo:42046:1,2013-12-03T12:00:00Z,27.8903,-94.0367,2.0,93.52283132,12.69398677,-99999.0,'11111222,11111222,99999999' 
TABS,ioos:station:wmo:42046:1,2013-12-03T12:30:00Z,27.8903,-94.0367,2.0,108.6056457,7.428223206,-99999.0,'11133222,11111222,99999999' 
TABS,ioos:station:wmo:42046:1,2013-12-03T13:00:00Z,27.8903,-94.0367,2.0,84.03257939,17.31382107,-99999.0,'11111222,11111222,99999999' 
TABS,ioos:station:wmo:42046:1,2013-12-03T13:30:00Z,27.8903,-94.0367,2.0,88.34098626,6.562750948,-99999.0,'11133222,11111222,99999999' 
TABS,ioos:station:wmo:42046:1,2013-12-03T14:00:00Z,27.8903,-94.0367,2.0,54.25916834,11.47022668,-99999.0,'11111222,11111222,99999999' 
TABS,ioos:station:wmo:42046:1,2013-12-03T14:30:00Z,27.8903,-94.0367,2.0,78.09637797,9.841636043,-99999.0,'11133222,11111222,99999999' 
TABS,ioos:station:wmo:42046:1,2013-12-03T15:00:00Z,27.8903,-94.0367,2.0,57.63220485,16.58717878,-99999.0,'11111222,11111222,99999999' 
TABS,ioos:station:wmo:42046:1,2013-12-03T15:30:00Z,27.8903,-94.0367,2.0,53.18362768,12.8660056,-99999.0,'11111222,11111222,99999999' 
TABS,ioos:station:wmo:42046:1,2013-12-03T16:00:00Z,27.8903,-94.0367,2.0,34.38844849,21.84848965,-99999.0,'11111222,11111222,99999999' 
TABS,ioos:station:wmo:42046:1,2013-12-03T16:30:00Z,27.8903,-94.0367,2.0,31.76395834,21.37080719,-99999.0,'11111222,11111222,99999999' 
TABS,ioos:station:wmo:42046:1,2013-12-03T17:00:00Z,27.8903,-94.0367,2.0,23.08798848,22.41536304,-99999.0,'11111222,11111222,99999999' 
TABS,ioos:station:wmo:42046:1,2013-12-03T17:30:00Z,27.8903,-94.0367,2.0,12.90165111,23.51358969,-99999.0,'11111222,11111222,99999999' 
TABS,ioos:station:wmo:42046:1,2013-12-03T18:00:00Z,27.8903,-94.0367,2.0,20.06537703,26.23222446,-99999.0,'11111222,11111222,99999999' 
TABS,ioos:station:wmo:42046:1,2013-12-03T18:30:00Z,27.8903,-94.0367,2.0,27.34778914,31.43310357,-99999.0,'11111222,11111222,99999999' 
TABS,ioos:station:wmo:42046:1,2013-12-03T19:00:00Z,27.8903,-94.0367,2.0,18.30670316,31.04099547,-99999.0,'11111222,11111222,99999999' 
TABS,ioos:station:wmo:42046:1,2013-12-03T19:30:00Z,27.8903,-94.0367,2.0,21.82331776,34.24407978,-99999.0,'11111222,11111222,99999999' 
TABS,ioos:station:wmo:42046:1,2013-12-03T20:00:00Z,27.8903,-94.0367,2.0,27.24207078,27.63525647,-99999.0,'11111222,11111222,99999999' 
TABS,ioos:station:wmo:42046:1,2013-12-03T20:30:00Z,27.8903,-94.0367,2.0,29.43410744,29.48597124,-99999.0,'11111222,11111222,99999999' 
TABS,ioos:station:wmo:42046:1,2013-12-03T21:00:00Z,27.8903,-94.0367,2.0,62.3186334,22.49464158,-99999.0,'11111222,11111222,99999999' 
TABS,ioos:station:wmo:42046:1,2013-12-03T21:30:00Z,27.8903,-94.0367,2.0,70.13089321,23.62645339,-99999.0,'11111222,11111222,99999999' 
TABS,ioos:station:wmo:42046:1,2013-12-03T22:00:00Z,27.8903,-94.0367,2.0,71.42325841,29.38081177,-99999.0,'11111222,11111222,99999999' 
TABS,ioos:station:wmo:42046:1,2013-12-03T22:30:00Z,27.8903,-94.0367,2.0,75.3676712,23.07851382,-99999.0,'11111222,11111222,99999999' 
TABS,ioos:station:wmo:42046:1,2013-12-03T23:00:00Z,27.8903,-94.0367,2.0,74.88750575,29.95600941,-99999.0,'11111222,11111222,99999999' 
TABS,ioos:station:wmo:42046:1,2013-12-03T23:30:00Z,27.8903,-94.0367,2.0,78.63285559,25.5206054,-99999.0,'11111222,11111222,99999999' 
TABS,ioos:station:wmo:42046:1,2013-12-04T00:00:00Z,27.8903,-94.0367,2.0,83.5618819,26.48704023,-99999.0,'11111222,11111222,99999999' 
TABS,ioos:station:wmo:42046:1,2013-12-04T00:30:00Z,27.8903,-94.0367,2.0,82.12914259,25.63146894,-99999.0,'11111222,11111222,99999999' 
TABS,ioos:station:wmo:42046:1,2013-12-04T01:00:00Z,27.8903,-94.0367,2.0,88.21082878,24.34186723,-99999.0,'11111222,11111222,99999999' 
TABS,ioos:station:wmo:42046:1,2013-12-04T01:30:00Z,27.8903,-94.0367,2.0,81.56889152,20.18817723,-99999.0,'11111222,11111222,99999999' 
TABS,ioos:station:wmo:42046:1,2013-12-04T02:00:00Z,27.8903,-94.0367,2.0,89.17959337,20.95214786,-99999.0,'11111222,11111222,99999999' 
TABS,ioos:station:wmo:42046:1,2013-12-04T02:30:00Z,27.8903,-94.0367,2.0,85.17789259,20.34200088,-99999.0,'11111222,11111222,99999999' 
TABS,ioos:station:wmo:42046:1,2013-12-04T03:00:00Z,27.8903,-94.0367,2.0,91.85673608,18.20956068,-99999.0,'11111222,11111222,99999999' 
TABS,ioos:station:wmo:42046:1,2013-12-04T03:30:00Z,27.8903,-94.0367,2.0,87.25082026,16.67919662,-99999.0,'11111222,11111222,99999999' 
TABS,ioos:station:wmo:42046:1,2013-12-04T04:00:00Z,27.8903,-94.0367,2.0,80.63241316,15.91219972,-99999.0,'11111222,11111222,99999999' 
TABS,ioos:station:wmo:42046:1,2013-12-04T04:30:00Z,27.8903,-94.0367,2.0,92.3312077,19.17587025,-99999.0,'11111222,11111222,99999999' 
TABS,ioos:station:wmo:42046:1,2013-12-04T05:00:00Z,27.8903,-94.0367,2.0,91.18572519,16.91362173,-99999.0,'11111222,11111222,99999999' 
TABS,ioos:station:wmo:42046:1,2013-12-04T05:30:00Z,27.8903,-94.0367,2.0,87.62167559,15.66349259,-99999.0,'11111222,11111222,99999999' 
TABS,ioos:station:wmo:42046:1,2013-12-04T06:00:00Z,27.8903,-94.0367,2.0,96.63249911,15.15140258,-99999.0,'11111222,11111222,99999999' 
TABS,ioos:station:wmo:42046:1,2013-12-04T06:30:00Z,27.8903,-94.0367,2.0,93.34070728,16.98886989,-99999.0,'11111222,11111222,99999999' 
TABS,ioos:station:wmo:42046:1,2013-12-04T07:00:00Z,27.8903,-94.0367,2.0,98.68297953,11.72437632,-99999.0,'11111222,11111222,99999999' 
TABS,ioos:station:wmo:42046:1,2013-12-04T07:30:00Z,27.8903,-94.0367,2.0,90.72605802,8.680696977,-99999.0,'11133222,11111222,99999999' 
TABS,ioos:station:wmo:42046:1,2013-12-04T08:00:00Z,27.8903,-94.0367,2.0,117.2787144,7.898404902,-99999.0,'11133222,11111222,99999999' 
TABS,ioos:station:wmo:42046:1,2013-12-04T08:30:00Z,27.8903,-94.0367,2.0,106.0599498,6.18123774,-99999.0,'11133222,11111222,99999999' 
TABS,ioos:station:wmo:42046:1,2013-12-04T09:00:00Z,27.8903,-94.0367,2.0,114.9876502,11.86012647,-99999.0,'11111222,11111222,99999999' 
TABS,ioos:station:wmo:42046:1,2013-12-04T09:30:00Z,27.8903,-94.0367,2.0,133.2856761,6.854932531,-99999.0,'11133222,11111222,99999999' 
TABS,ioos:station:wmo:42046:1,2013-12-04T10:00:00Z,27.8903,-94.0367,2.0,113.9420811,11.43381389,-99999.0,'11111222,11111222,99999999' 
TABS,ioos:station:wmo:42046:1,2013-12-04T10:30:00Z,27.8903,-94.0367,2.0,116.3994749,9.288665136,-99999.0,'11133222,11111222,99999999' 
TABS,ioos:station:wmo:42046:1,2013-12-04T11:00:00Z,27.8903,-94.0367,2.0,113.80263,9.465093766,-99999.0,'11133222,11111222,99999999' 
TABS,ioos:station:wmo:42046:1,2013-12-04T11:30:00Z,27.8903,-94.0367,2.0,102.0520981,14.08035866,-99999.0,'11111222,11111222,99999999' 
TABS,ioos:station:wmo:42046:1,2013-12-04T12:00:00Z,27.8903,-94.0367,2.0,105.9453586,10.70176154,-99999.0,'11111222,11111222,99999999' 
TABS,ioos:station:wmo:42046:1,2013-12-04T12:30:00Z,27.8903,-94.0367,2.0,109.8583461,4.710084925,-99999.0,'11133222,11111222,99999999' 
TABS,ioos:station:wmo:42046:1,2013-12-04T13:00:00Z,27.8903,-94.0367,2.0,96.01748896,3.529447549,-99999.0,'11133222,11111222,99999999' 
TABS,ioos:station:wmo:42046:1,2013-12-04T13:30:00Z,27.8903,-94.0367,2.0,80.63720598,4.733053982,-99999.0,'11133222,11111222,99999999' 
TABS,ioos:station:wmo:42046:1,2013-12-04T14:00:00Z,27.8903,-94.0367,2.0,102.6803538,4.51,-99999.0,'11133222,11111222,99999999' 
TABS,ioos:station:wmo:42046:1,2013-12-04T14:30:00Z,27.8903,-94.0367,2.0,88.96589487,2.770451227,-99999.0,'11133222,11111222,99999999' 
TABS,ioos:station:wmo:42046:1,2013-12-04T15:00:00Z,27.8903,-94.0367,2.0,68.19864149,6.031384584,-99999.0,'11133222,11111222,99999999' 
TABS,ioos:station:wmo:42046:1,2013-12-04T15:30:00Z,27.8903,-94.0367,2.0,10.91131333,6.762248147,-99999.0,'11133222,11111222,99999999' 
TABS,ioos:station:wmo:42046:1,2013-12-04T16:00:00Z,27.8903,-94.0367,2.0,44.49605097,9.645309741,-99999.0,'11133222,11111222,99999999' 